GW7323 Weather Reports


Display with metric or nautical units.
time (UTC)temp
F
wind
direction
speed
MPH
gust
MPH
rain 1hr
in
rain 24hr
in
rain mn
in
humidity
%
barometer
mb
20260509074530 54 300 3.0 7.0 0.00 0.11 0.00 91 1006.8
20260509074006 54 323 4.0 7.0 0.00 0.11 0.00 91 1006.7
20260509073506 54 312 4.0 6.0 0.00 0.11 0.00 91 1006.8
20260509073006 54 311 3.0 6.0 0.00 0.11 0.00 91 1006.8
20260509072507 54 308 4.0 9.0 0.00 0.11 0.00 90 1006.8
20260509072004 54 311 5.0 9.0 0.00 0.11 0.00 90 1007.0
20260509071511 54 318 4.0 8.0 0.00 0.11 0.00 90 1007.1
20260509071005 54 32 4.0 8.0 0.00 0.11 0.00 90 1007.1
20260509070507 54 316 3.0 9.0 0.00 0.11 0.00 90 1007.2
20260509070016 54 347 4.0 9.0 0.00 0.11 0.00 90 1007.2
20260509065513 54 289 5.0 9.0 0.00 0.11 0.00 90 1007.1
20260509065009 54 290 6.0 9.0 0.00 0.11 0.00 90 1007.2
20260509064518 54 296 4.0 8.0 0.00 0.11 0.00 90 1007.3
20260509064010 54 306 5.0 7.0 0.00 0.11 0.00 90 1007.3
20260509063509 54 283 4.0 6.0 0.00 0.11 0.00 90 1007.4
20260509063020 54 300 5.0 6.0 0.00 0.11 0.00 90 1007.5
20260509062510 54 266 4.0 6.0 0.00 0.12 0.00 90 1007.7
20260509062003 54 284 2.0 5.0 0.00 0.13 0.00 90 1007.7
20260509061507 54 307 2.0 4.0 0.00 0.13 0.00 90 1007.8
20260509061002 54 328 1.0 4.0 0.00 0.13 0.00 89 1007.8
20260509060028 54 304 3.0 5.0 0.00 0.13 0.00 89 1007.8
20260509055510 54 334 2.0 5.0 0.00 0.13 0.00 89 1007.9
20260509055011 54 281 4.0 5.0 0.00 0.13 0.00 89 1007.9
20260509054527 54 333 1.0 4.0 0.00 0.13 0.00 89 1008.0
20260509054013 54 311 2.0 5.0 0.00 0.13 0.00 89 1008.1
20260509053511 54 348 1.0 5.0 0.00 0.13 0.00 89 1008.2
20260509053033 54 304 2.0 6.0 0.00 0.13 0.00 89 1008.1
20260509052513 54 296 3.0 6.0 0.00 0.13 0.00 88 1008.0
20260509052012 54 294 4.0 6.0 0.00 0.13 0.00 88 1007.9
20260509051525 54 284 5.0 6.0 0.00 0.13 0.00 89 1008.0
20260509051010 54 300 2.0 5.0 0.00 0.13 0.00 89 1007.9
20260509050516 54 293 2.0 9.0 0.00 0.13 0.00 88 1007.9
20260509050047 54 307 3.0 9.0 0.00 0.13 0.00 88 1008.0
20260509045508 54 302 6.0 9.0 0.00 0.13 0.00 88 1007.8
20260509045011 54 301 5.0 7.0 0.00 0.13 0.00 88 1007.9
20260509044534 55 2 2.0 4.0 0.00 0.13 0.00 88 1007.8
20260509044015 55 20 2.0 6.0 0.00 0.13 0.00 87 1007.8
20260509043512 55 333 2.0 7.0 0.00 0.13 0.00 87 1007.7
20260509043039 55 310 5.0 7.0 0.00 0.13 0.00 87 1007.8
20260509042508 55 298 4.0 6.0 0.00 0.13 0.00 88 1007.8
20260509042010 55 311 4.0 5.0 0.00 0.13 0.00 88 1007.9
20260509041525 55 290 3.0 5.0 0.00 0.13 0.00 88 1007.9
20260509041009 55 322 3.0 4.0 0.00 0.13 0.00 88 1007.9
20260509040513 55 316 2.0 3.0 0.00 0.13 0.00 88 1007.9
20260509040028 55 1 1.0 3.0 0.00 0.13 0.00 88 1008.0
20260509035510 55 354 1.0 4.0 0.00 0.13 0.13 88 1008.0
20260509035010 55 321 3.0 5.0 0.00 0.13 0.13 88 1008.0
20260509034530 55 313 3.0 5.0 0.00 0.13 0.13 88 1008.1
20260509034010 55 7 1.0 4.0 0.00 0.13 0.13 88 1008.1
20260509033517 55 337 2.0 5.0 0.00 0.13 0.13 88 1008.3
20260509033036 55 316 2.0 5.0 0.00 0.13 0.13 88 1008.3
20260509032516 55 340 3.0 5.0 0.00 0.13 0.13 88 1008.4
20260509032010 55 319 2.0 7.0 0.00 0.13 0.13 88 1008.3
20260509031527 55 297 3.0 7.0 0.00 0.13 0.13 88 1008.4
20260509031007 55 288 3.0 7.0 0.00 0.13 0.13 88 1008.5
20260509030514 56 283 4.0 7.0 0.00 0.13 0.13 88 1008.5
20260509030027 56 318 4.0 7.0 0.00 0.13 0.13 87 1008.5
20260509025508 56 304 4.0 7.0 0.00 0.13 0.13 87 1008.4
20260509025010 56 288 4.0 6.0 0.00 0.13 0.13 87 1008.4
20260509024529 56 307 4.0 6.0 0.00 0.13 0.13 87 1008.3
20260509024018 56 336 2.0 4.0 0.00 0.13 0.13 86 1008.2
20260509023511 56 313 3.0 5.0 0.00 0.13 0.13 86 1008.1
20260509023030 56 316 2.0 5.0 0.00 0.13 0.13 86 1008.1
20260509022511 56 289 2.0 5.0 0.00 0.13 0.13 86 1008.1
20260509022013 56 286 3.0 6.0 0.00 0.13 0.13 86 1008.1
20260509021530 56 304 2.0 6.0 0.00 0.13 0.13 86 1008.1
20260509021009 56 285 3.0 6.0 0.00 0.13 0.13 86 1008.1
20260509020507 56 312 2.0 6.0 0.00 0.13 0.13 85 1008.0
20260509020024 57 293 3.0 6.0 0.00 0.13 0.13 85 1008.1
20260509015507 57 304 4.0 6.0 0.00 0.13 0.13 85 1008.0
20260509015015 57 297 3.0 7.0 0.00 0.13 0.13 85 1008.0
20260509014528 57 319 3.0 7.0 0.00 0.13 0.13 85 1008.0
20260509014008 57 324 4.0 8.0 0.00 0.13 0.13 85 1008.0
20260509013511 57 330 5.0 8.0 0.00 0.13 0.13 85 1008.1
20260509013028 57 323 3.0 11.0 0.00 0.13 0.13 84 1008.1
20260509012512 57 285 4.0 11.0 0.00 0.13 0.13 84 1008.1
20260509012013 57 313 7.0 11.0 0.00 0.13 0.13 84 1008.1
20260509011531 57 318 5.0 10.0 0.00 0.13 0.13 84 1008.1
20260509011010 57 13 5.0 10.0 0.00 0.13 0.13 83 1008.1
20260509010513 57 315 5.0 8.0 0.00 0.13 0.13 83 1008.1
20260509010035 58 336 5.0 10.0 0.00 0.13 0.13 83 1008.1
20260509005511 58 330 6.0 10.0 0.00 0.13 0.13 83 1008.1
20260509005010 58 284 4.0 10.0 0.00 0.13 0.13 83 1008.1
20260509004524 58 319 4.0 10.0 0.00 0.13 0.13 83 1008.1
20260509004010 58 318 5.0 10.0 0.00 0.13 0.13 83 1008.1
20260509003512 58 316 5.0 11.0 0.00 0.13 0.13 83 1008.1
20260509003025 58 302 5.0 11.0 0.00 0.13 0.13 83 1008.1
20260509002514 58 340 6.0 10.0 0.00 0.13 0.13 83 1008.1
20260509002014 58 325 7.0 10.0 0.00 0.13 0.13 83 1008.1
20260509001527 58 349 5.0 10.0 0.00 0.13 0.13 82 1008.1
20260509001008 58 314 6.0 10.0 0.00 0.13 0.13 82 1008.1
20260509000511 58 316 6.0 10.0 0.00 0.13 0.13 82 1008.2
20260509000040 58 314 6.0 9.0 0.00 0.13 0.13 82 1008.2
20260508235509 58 323 4.0 10.0 0.00 0.13 0.13 82 1008.2
20260508235009 58 324 7.0 10.0 0.00 0.13 0.13 82 1008.3
20260508234519 58 301 4.0 8.0 0.00 0.13 0.13 82 1008.3
20260508234009 58 306 4.0 8.0 0.00 0.13 0.13 82 1008.3
20260508233507 58 292 6.0 9.0 0.00 0.13 0.13 82 1008.3
20260508233026 58 290 6.0 9.0 0.00 0.13 0.13 82 1008.3
20260508232508 58 316 6.0 8.0 0.00 0.13 0.13 82 1008.4
20260508232014 58 314 5.0 9.0 0.00 0.13 0.13 82 1008.4
20260508231526 58 309 4.0 9.0 0.00 0.13 0.13 82 1008.4
20260508231014 58 356 7.0 9.0 0.00 0.13 0.13 81 1008.5
20260508230510 58 306 5.0 9.0 0.00 0.13 0.13 81 1008.5
20260508230027 58 314 5.0 11.0 0.00 0.13 0.13 81 1008.5
20260508225509 58 295 6.0 11.0 0.00 0.13 0.13 81 1008.5
20260508225010 58 326 6.0 9.0 0.00 0.13 0.13 81 1008.6
20260508224548 58 323 6.0 10.0 0.00 0.13 0.13 80 1008.6
20260508224006 58 310 4.0 10.0 0.00 0.13 0.13 80 1008.6
20260508223509 58 323 5.0 8.0 0.00 0.13 0.13 80 1008.7
20260508223023 58 286 5.0 10.0 0.00 0.13 0.13 79 1008.6
20260508222508 58 326 4.0 10.0 0.00 0.13 0.13 79 1008.6
20260508222010 58 283 7.0 10.0 0.00 0.13 0.13 78 1008.7
20260508221533 58 280 6.0 9.0 0.00 0.13 0.13 79 1008.8
20260508221011 58 320 6.0 9.0 0.00 0.13 0.13 79 1008.7
20260508220510 59 320 5.0 8.0 0.00 0.13 0.13 79 1008.5
20260508220034 59 294 4.0 8.0 0.00 0.13 0.13 81 1008.5
20260508215510 59 281 4.0 8.0 0.00 0.13 0.13 81 1008.3
20260508215016 59 311 5.0 6.0 0.00 0.13 0.13 82 1008.5
20260508214538 59 295 4.0 8.0 0.00 0.13 0.13 82 1008.5
20260508214009 59 314 5.0 8.0 0.00 0.13 0.13 82 1008.8
20260508213513 59 316 4.0 7.0 0.00 0.13 0.13 84 1008.5
20260508213029 59 321 5.0 8.0 0.00 0.13 0.13 84 1008.4
20260508212508 58 282 5.0 8.0 0.00 0.13 0.13 85 1008.5
20260508212009 58 307 6.0 11.0 0.00 0.13 0.13 86 1008.4
20260508211526 58 308 7.0 11.0 0.00 0.13 0.13 87 1008.5
20260508211008 58 318 5.0 7.0 0.00 0.14 0.13 87 1008.5
20260508210509 58 295 4.0 6.0 0.01 0.14 0.13 88 1008.5
20260508210029 58 320 3.0 11.0 0.01 0.14 0.13 88 1008.5
20260508205510 58 304 2.0 11.0 0.01 0.14 0.13 88 1008.6
20260508205015 58 359 4.0 8.0 0.02 0.14 0.13 88 1008.7
20260508204534 57 263 3.0 10.0 0.03 0.14 0.13 88 1008.8
20260508204010 57 282 6.0 10.0 0.04 0.14 0.13 87 1008.8
20260508203519 57 266 6.0 9.0 0.05 0.14 0.13 87 1008.9
20260508203029 57 294 6.0 9.0 0.06 0.14 0.13 87 1009.0
20260508202511 57 245 5.0 12.0 0.08 0.14 0.13 88 1009.1
20260508202012 57 320 6.0 12.0 0.10 0.14 0.13 87 1009.2
20260508201521 57 276 8.0 12.0 0.10 0.14 0.13 87 1009.5
20260508201008 58 310 4.0 11.0 0.11 0.14 0.13 86 1009.6
20260508200509 58 328 6.0 11.0 0.10 0.13 0.12 85 1009.5
20260508200037 58 333 5.0 8.0 0.10 0.13 0.12 85 1009.4
20260508195509 58 274 5.0 9.0 0.10 0.13 0.12 84 1009.5
20260508195011 58 304 6.0 10.0 0.09 0.12 0.11 83 1009.6
20260508194527 58 285 6.0 10.0 0.08 0.11 0.10 83 1009.7
20260508194014 58 308 7.0 12.0 0.07 0.10 0.09 82 1009.7
20260508193511 59 323 7.0 12.0 0.06 0.09 0.08 80 1009.8
20260508193028 59 314 6.0 11.0 0.05 0.08 0.07 79 1009.9
20260508192517 60 316 5.0 11.0 0.03 0.06 0.05 78 1009.8
20260508192015 60 309 4.0 11.0 0.01 0.04 0.03 77 1009.9
20260508191533 60 316 7.0 11.0 0.01 0.04 0.03 75 1009.8
20260508191010 61 315 7.0 11.0 0.00 0.03 0.02 75 1009.9
20260508190513 61 283 6.0 10.0 0.00 0.03 0.02 74 1009.9
20260508190023 62 274 6.0 8.0 0.00 0.03 0.02 73 1010.0
20260508185509 62 297 3.0 6.0 0.00 0.03 0.02 71 1010.0
20260508185012 62 346 3.0 5.0 0.00 0.03 0.02 72 1010.2
20260508184529 62 339 3.0 6.0 0.00 0.03 0.02 71 1010.2
20260508184009 62 315 4.0 7.0 0.00 0.03 0.02 70 1010.1
20260508183511 62 359 3.0 7.0 0.00 0.03 0.02 71 1010.2
20260508183027 62 337 4.0 8.0 0.00 0.03 0.02 70 1010.3
20260508182509 62 32 2.0 8.0 0.00 0.03 0.02 69 1010.1
20260508182015 62 340 3.0 11.0 0.00 0.03 0.02 69 1010.1
20260508181530 62 359 6.0 11.0 0.00 0.03 0.02 68 1010.0
20260508181016 62 311 5.0 11.0 0.00 0.03 0.02 69 1010.0
20260508180510 62 274 5.0 13.0 0.00 0.03 0.02 70 1010.2
20260508180023 62 318 5.0 13.0 0.00 0.03 0.02 69 1010.4
20260508175509 62 311 6.0 19.0 0.00 0.03 0.02 69 1010.4
20260508175012 62 323 4.0 19.0 0.00 0.03 0.02 69 1010.6
20260508174526 63 343 9.0 19.0 0.00 0.03 0.02 67 1010.5
20260508174016 64 309 6.0 10.0 0.00 0.03 0.02 64 1010.2
20260508173510 64 7 3.0 12.0 0.00 0.03 0.02 63 1010.3
20260508173027 64 12 4.0 14.0 0.00 0.03 0.02 63 1010.3
20260508172510 64 15 8.0 14.0 0.00 0.03 0.02 62 1010.6
20260508172015 64 53 7.0 14.0 0.00 0.03 0.02 63 1010.6
20260508171534 64 311 8.0 16.0 0.00 0.03 0.02 62 1010.7
20260508171012 64 322 9.0 17.0 0.00 0.03 0.02 62 1010.7
20260508170510 64 350 8.0 17.0 0.00 0.03 0.02 61 1010.7
20260508170032 64 312 10.0 17.0 0.00 0.03 0.02 61 1010.7
20260508165509 64 307 9.0 15.0 0.00 0.03 0.02 60 1010.8
20260508165013 64 359 7.0 19.0 0.00 0.03 0.02 62 1010.9
20260508164524 63 339 7.0 19.0 0.00 0.03 0.02 62 1010.9
20260508164009 63 296 9.0 19.0 0.00 0.03 0.02 61 1011.0
20260508163512 63 308 12.0 15.0 0.00 0.03 0.02 60 1011.0
20260508163028 63 287 9.0 15.0 0.00 0.03 0.02 61 1011.0
20260508162510 63 325 9.0 15.0 0.00 0.03 0.02 60 1011.1
20260508162013 63 319 8.0 14.0 0.00 0.03 0.02 62 1011.2
20260508161536 62 307 7.0 15.0 0.00 0.03 0.02 63 1011.3
20260508161010 62 340 4.0 15.0 0.00 0.03 0.02 63 1011.3
20260508160514 61 314 7.0 11.0 0.00 0.03 0.02 63 1011.4
20260508160033 60 303 7.0 10.0 0.00 0.03 0.02 65 1011.4
20260508155511 59 291 5.0 10.0 0.00 0.03 0.02 65 1011.5
20260508155009 59 317 5.0 9.0 0.00 0.03 0.02 66 1011.5
20260508154522 59 344 4.0 9.0 0.00 0.03 0.02 66 1011.6
20260508154011 58 322 7.0 9.0 0.00 0.03 0.02 66 1011.6
20260508153511 58 278 6.0 11.0 0.00 0.03 0.02 66 1011.7
20260508153024 58 313 6.0 11.0 0.00 0.03 0.02 66 1011.7
20260508152507 57 296 6.0 10.0 0.00 0.03 0.02 66 1011.8
20260508152016 57 307 5.0 8.0 0.00 0.03 0.02 66 1011.9
20260508151526 57 274 5.0 8.0 0.00 0.03 0.02 66 1011.9
20260508151017 57 302 3.0 6.0 0.00 0.03 0.02 67 1011.9
20260508150513 56 318 4.0 8.0 0.00 0.03 0.02 67 1011.9
20260508150037 56 310 5.0 8.0 0.00 0.03 0.02 67 1012.0
20260508145510 56 332 4.0 7.0 0.00 0.03 0.02 67 1012.0
20260508145010 56 38 2.0 10.0 0.00 0.03 0.02 66 1012.0
20260508144539 56 311 5.0 10.0 0.00 0.03 0.02 65 1012.0
20260508144007 56 321 5.0 9.0 0.00 0.03 0.02 65 1012.0
20260508143507 56 325 6.0 9.0 0.00 0.03 0.02 66 1011.9
20260508143035 56 320 4.0 12.0 0.00 0.03 0.02 66 1011.9
20260508142507 56 305 6.0 12.0 0.00 0.03 0.02 65 1012.0
20260508142016 56 319 4.0 12.0 0.00 0.03 0.02 66 1012.1
20260508141528 55 354 7.0 12.0 0.00 0.03 0.02 66 1012.2
20260508141012 55 303 9.0 12.0 0.00 0.03 0.02 65 1012.4
20260508140513 55 309 7.0 14.0 0.00 0.03 0.02 65 1012.3
20260508140035 55 347 8.0 14.0 0.00 0.03 0.02 66 1012.2
20260508135512 55 301 8.0 13.0 0.00 0.03 0.02 67 1012.3
20260508135014 55 332 6.0 13.0 0.00 0.03 0.02 67 1012.3
20260508134532 55 318 5.0 9.0 0.00 0.03 0.02 68 1012.4
20260508134010 55 329 5.0 9.0 0.00 0.03 0.02 68 1012.5
20260508133511 55 310 3.0 9.0 0.00 0.03 0.02 69 1012.5
20260508133020 54 307 6.0 11.0 0.00 0.03 0.02 69 1012.6
20260508132506 54 322 6.0 11.0 0.00 0.03 0.02 68 1012.5
20260508132008 54 282 4.0 7.0 0.00 0.03 0.02 70 1012.6
20260508131525 53 290 6.0 7.0 0.00 0.03 0.02 70 1012.7
20260508131012 53 311 4.0 8.0 0.00 0.03 0.02 71 1012.6
20260508130510 53 293 4.0 8.0 0.00 0.03 0.02 71 1012.5
20260508130029 52 281 5.0 7.0 0.00 0.03 0.02 72 1012.6
20260508125509 52 300 4.0 7.0 0.00 0.03 0.02 72 1012.7
20260508125013 52 288 5.0 7.0 0.00 0.03 0.02 72 1012.6
20260508124527 52 278 5.0 8.0 0.00 0.03 0.02 71 1012.7
20260508124010 52 267 4.0 8.0 0.00 0.03 0.02 71 1012.7
20260508123514 52 251 5.0 9.0 0.00 0.03 0.02 71 1012.6
20260508123032 52 301 5.0 9.0 0.00 0.03 0.02 71 1012.5
20260508122507 52 290 5.0 8.0 0.00 0.03 0.02 72 1012.5
20260508122012 52 274 5.0 9.0 0.00 0.03 0.02 72 1012.6
20260508121525 52 286 6.0 9.0 0.00 0.03 0.02 72 1012.5
20260508121008 52 323 6.0 9.0 0.00 0.03 0.02 72 1012.5
20260508120506 52 296 6.0 9.0 0.00 0.03 0.02 73 1012.5
20260508120024 52 302 7.0 9.0 0.00 0.03 0.02 73 1012.5
20260508115511 52 287 4.0 6.0 0.00 0.03 0.02 74 1012.5
20260508115008 52 254 4.0 6.0 0.00 0.03 0.02 73 1012.4
20260508114533 51 311 4.0 6.0 0.00 0.03 0.02 74 1012.5
20260508114011 51 314 4.0 6.0 0.00 0.03 0.02 74 1012.5
20260508113510 51 283 4.0 6.0 0.00 0.03 0.02 75 1012.4
20260508113044 51 258 4.0 5.0 0.00 0.03 0.02 76 1012.4
20260508112509 51 303 1.0 6.0 0.00 0.03 0.02 77 1012.4
20260508112012 51 278 4.0 6.0 0.00 0.03 0.02 78 1012.4
20260508111530 51 277 3.0 6.0 0.00 0.03 0.02 79 1012.3
20260508111008 50 251 3.0 4.0 0.00 0.03 0.02 81 1012.4
20260508110512 50 266 1.0 2.0 0.00 0.03 0.02 83 1012.5
20260508110024 50 266 1.0 2.0 0.00 0.03 0.02 82 1012.4
20260508105510 51 266 0.0 3.0 0.00 0.03 0.02 81 1012.4
20260508105015 51 267 3.0 3.0 0.00 0.03 0.02 81 1012.4
20260508104523 51 206 2.0 3.0 0.00 0.03 0.02 81 1012.5
20260508104011 51 269 2.0 3.0 0.00 0.03 0.02 81 1012.5
20260508103512 51 298 2.0 3.0 0.00 0.03 0.02 81 1012.5
20260508103028 51 230 1.0 3.0 0.00 0.03 0.02 81 1012.5
20260508102512 51 231 0.0 3.0 0.00 0.03 0.02 81 1012.5
20260508102013 51 231 2.0 3.0 0.00 0.03 0.02 81 1012.4
20260508101537 51 199 2.0 2.0 0.00 0.03 0.02 82 1012.3
20260508101012 51 129 0.0 1.0 0.00 0.03 0.02 82 1012.5
20260508100507 51 129 0.0 1.0 0.00 0.03 0.02 82 1012.6
20260508100018 51 139 0.0 2.0 0.00 0.03 0.02 82 1012.6
20260508095515 51 139 0.0 2.0 0.00 0.03 0.02 81 1012.5
20260508095007 51 140 1.0 2.0 0.00 0.03 0.02 81 1012.5
20260508094524 51 127 0.0 2.0 0.00 0.03 0.02 80 1012.7
20260508094011 51 126 1.0 2.0 0.00 0.03 0.02 79 1012.6
20260508093511 52 101 0.0 1.0 0.00 0.03 0.02 79 1012.8
20260508093028 52 101 0.0 2.0 0.00 0.03 0.02 78 1012.8
20260508092509 52 101 1.0 2.0 0.00 0.03 0.02 77 1012.8
20260508092009 52 86 0.0 2.0 0.00 0.03 0.02 76 1012.8
20260508091529 53 86 0.0 3.0 0.00 0.03 0.02 74 1012.7
20260508091017 53 86 1.0 3.0 0.00 0.03 0.02 73 1012.7
20260508090517 53 55 1.0 3.0 0.00 0.03 0.02 73 1012.7
20260508090041 53 39 1.0 3.0 0.00 0.03 0.02 72 1012.8
20260508085509 53 46 1.0 5.0 0.00 0.03 0.02 72 1012.8
20260508085008 53 91 2.0 12.0 0.00 0.03 0.02 72 1012.9
20260508084522 53 84 1.0 12.0 0.00 0.03 0.02 73 1013.0
20260508084007 52 359 7.0 12.0 0.00 0.03 0.02 73 1013.1
20260508083509 52 354 4.0 10.0 0.00 0.03 0.02 77 1013.0
20260508083034 51 112 2.0 13.0 0.00 0.03 0.02 78 1012.8
20260508082513 51 103 6.0 13.0 0.00 0.03 0.02 80 1013.0
20260508082009 50 82 9.0 13.0 0.00 0.03 0.02 82 1013.0
20260508081528 51 32 1.0 7.0 0.00 0.03 0.02 80 1012.2
20260508081008 51 290 3.0 7.0 0.00 0.03 0.02 80 1012.2
20260508080510 51 296 3.0 6.0 0.00 0.03 0.02 81 1012.2
20260508080030 51 257 2.0 4.0 0.00 0.03 0.02 81 1012.2
20260508075513 50 231 3.0 4.0 0.00 0.03 0.02 82 1012.2
20260508075014 50 290 1.0 5.0 0.00 0.03 0.02 82 1012.2